Regional Weather Roundup
Issued by NWS

Home | Current Version | Previous Version | Graphics & Text | Print | Product List | Glossary On
Versions: 1 2 3 4 5 6 7 8 9 10 11 12 13 14 15 16 17 18 19 20 21 22 23 24 25 26 27
000
ASUS45 KBOU 300607
RWRCO

WEATHER ROUNDUP FOR COLORADO
NATIONAL WEATHER SERVICE DENVER/BOULDER CO
1200 AM MDT TUE AUG 30 2016

NOTE: "FAIR" INDICATES FEW OR NO CLOUDS BELOW 12000 FEET WITH NO
SIGNIFICANT WEATHER AND/OR OBSTRUCTIONS TO VISIBILITY.

COZ001>005-013-030-031-300700-
...NORTHWEST COLORADO...

CITY           SKY/WX    TMP DP  RH WIND       PRES   REMARKS
CRAIG          FAIR      58  39  49 E3        30.37R
HAYDEN         FAIR      61  36  39 E9        30.39S
MEEKER         FAIR      52  41  66 NE5       30.37R
MOUNT WERNER   NOT AVBL
STEAMBOAT SPGS FAIR      57  38  50 CALM      30.42S
WALDEN         FAIR      43  32  65 SE6       30.53S
$$

COZ006>008-011-300700-
...WEST CENTRAL VALLEYS...

CITY           SKY/WX    TMP DP  RH WIND       PRES   REMARKS
GRAND JUNCTION FAIR      68  44  42 SE12      30.26R
MONTROSE       FAIR      59  46  62 S5        30.34R
EAGLE          FAIR      52  43  71 SE3       30.44R
RIFLE          FAIR      59  45  59 SE10      30.32S
DELTA          FAIR      62  46  55 CALM      30.31R
NUCLA          FAIR     N/A N/A N/A SE7       30.35S
$$

COZ017>023-064>068-300700-
...SOUTHWEST COLORADO...

CITY           SKY/WX    TMP DP  RH WIND       PRES   REMARKS
DURANGO        MOCLDY    54  45  71 CALM      30.37S
CORTEZ         CLOUDY    55  49  80 CALM      30.31R
PAGOSA SPRINGS FAIR      52  42  68 CALM      30.44S
TELLURIDE      FAIR      51  38  61 CALM      30.53S
WOLF CREEK PAS FAIR      36  36 100 MISG      30.71S
$$

COZ009-010-012-014-032>034-037-058>063-300700-
...CENTRAL COLORADO...

CITY           SKY/WX    TMP DP  RH WIND       PRES   REMARKS
ASPEN          FAIR      45  41  86 SW7       30.47R
BUENA VISTA    FAIR      44  42  93 NW5       30.53F
COPPER MTN     FAIR      45  32  61 S12       30.71S
BERTHOUD PASS  CLOUDY    34  23  64 E12       30.74S WCI  25
COTTONWOOD PAS FAIR      50  36  57 SW6       30.61F
GUNNISON       FAIR      48  41  76 N6        30.51S
KREMMLING      FAIR      46  37  71 S3        30.49S
LEADVILLE      FAIR      36  35  96 E3        30.61S
MONARCH PASS   FAIR      36  34  93 E21       30.78F
SALIDA         FAIR      48  45  90 W8        30.59S
SUNLIGHT       FAIR      45  37  76 SW7       30.66S
WILKERSON PASS MOCLDY    37  34  87 E6        30.70F
$$

COZ069>075-300700-
...SAN LUIS VALLEY/SANGRE DE CRISTO MOUNTAINS...

CITY           SKY/WX    TMP DP  RH WIND       PRES   REMARKS
ALAMOSA        FAIR      47  43  86 W6        30.46S
LA VETA PASS   MOCLDY    45  41  87 E5        30.61S
SAGUACHE       FAIR      48  45  87 NW12      30.48S
$$

COZ035-036-038>040-300700-
...NORTHERN COLORADO FRONT RANGE...

CITY           SKY/WX    TMP DP  RH WIND       PRES   REMARKS
DENVER INTL AP MOCLDY    62  49  62 W9        30.34R
DMNS CITY PARK   N/A     61  48  62 SW7G15    30.34S
AURORA         MOCLDY    60  49  65 SW9       30.36S
FRONT RANGE AP NOT AVBL
ERIE MUNI ARPT FAIR      59  51  74 W3        30.33S
BOULDER MUN AP FAIR      61  48  63 SW10      30.32F
CENTENNIAL     MOCLDY    58  46  64 SW7       30.37F
BROOMFIELD     FAIR      59  48  67 W10       30.35F
FORT COLLINS   FAIR      63  50  63 W3        30.32S
LONGMONT       FAIR      62  51  68 CALM      30.34F
$$

COZ041-046-047-076>085-087-088-300700-
...PIKES PEAK/PALMER DIVIDE AND SOUTHERN FOOTHILLS...

CITY           SKY/WX    TMP DP  RH WIND       PRES   REMARKS
COLO. SPRINGS  MOCLDY    59  47  64 NW6       30.40S
A. F. ACADEMY  MOCLDY    50  48  90 N8        30.41S
SCHRIEVER AFB  NOT AVBL
ELLICOTT       NOT AVBL
FALCON         MOCLDY    55  45  68 NW7       30.44S
FORT CARSON    CLOUDY    57  49  75 N5        30.37S
LIMON          FAIR      55  49  80 W6        30.35F
MONUMENT HILL  FAIR      48  45  87 SW8       30.45F
TRINIDAD       FAIR      56  51  84 W9        30.38F
$$

COZ042>045-048>051-090-091-300700-
...NORTHEAST COLORADO...

CITY           SKY/WX    TMP DP  RH WIND       PRES   REMARKS
GREELEY ARPT   FAIR      61  55  82 W5        30.33R
AKRON          FAIR      62  52  69 CALM      30.30S
BURLINGTON     FAIR      63  59  87 SE9       30.30S
WRAY           NOT AVBL
STERLING       FAIR      61  55  82 N5        30.26S
HOLYOKE        FAIR      63  61  94 S3        30.28R
FORT MORGAN    FAIR      62  52  71 N9        30.30S
$$

COZ086-089-092>099-300700-
...SOUTHEAST COLORADO...

CITY           SKY/WX    TMP DP  RH WIND       PRES   REMARKS
PUEBLO         CLOUDY    64  52  64 MISG      30.32S
LA JUNTA       CLOUDY    64  54  69 W7        30.29R
LAMAR          FAIR      63  59  87 E5        30.26S
SPRINGFIELD      N/A     63  61  93 S3        30.31S
$$




USA.gov is the U.S. government's official web portal to all federal, state and local government web resources and services.